Time,TemperatureF,DewpointF,PressureIn,WindDirection,WindDirectionDegrees,WindSpeedMPH,WindSpeedGustMPH,Humidity,HourlyPrecipIn,Conditions,Clouds,dailyrainin,SoftwareType,DateUTC
2013-02-20 00:01:00,19.0,12.0,29.76,North,0,0.0,-999.0,73,-99.99,,,-99.99,,2013-02-20 07:01:00,
2013-02-20 00:11:00,19.0,12.0,29.76,North,0,0.0,-999.0,73,-99.99,,,-99.99,,2013-02-20 07:11:00,
2013-02-20 00:21:00,19.0,12.0,29.76,North,0,0.0,-999.0,73,-99.99,,,-99.99,,2013-02-20 07:21:00,
2013-02-20 00:31:00,19.0,12.0,29.76,North,0,0.0,-999.0,73,-99.99,,,-99.99,,2013-02-20 07:31:00,
2013-02-20 00:42:00,19.0,12.0,29.76,North,0,0.0,-999.0,73,-99.99,,,-99.99,,2013-02-20 07:42:00,
2013-02-20 00:52:00,19.0,10.0,29.76,North,0,0.0,-999.0,67,-99.99,,,-99.99,,2013-02-20 07:52:00,
2013-02-20 01:01:00,19.0,10.0,29.76,North,0,0.0,-999.0,67,-99.99,,,-99.99,,2013-02-20 08:01:00,
2013-02-20 01:11:00,19.0,10.0,29.76,North,0,0.0,-999.0,67,-99.99,,,-99.99,,2013-02-20 08:11:00,
2013-02-20 01:21:00,19.0,10.0,29.76,North,0,0.0,-999.0,67,-99.99,,,-99.99,,2013-02-20 08:21:00,
2013-02-20 01:31:00,19.0,10.0,29.76,North,0,0.0,-999.0,67,-99.99,,,-99.99,,2013-02-20 08:31:00,
2013-02-20 01:41:00,19.0,10.0,29.76,North,0,0.0,-999.0,67,-99.99,,,-99.99,,2013-02-20 08:41:00,
2013-02-20 01:51:00,18.0,10.0,29.76,North,0,0.0,-999.0,72,-99.99,,,-99.99,,2013-02-20 08:51:00,
2013-02-20 02:01:00,18.0,10.0,29.76,North,0,0.0,-999.0,72,-99.99,,,-99.99,,2013-02-20 09:01:00,
2013-02-20 02:11:00,18.0,10.0,29.76,North,0,0.0,-999.0,72,-99.99,,,-99.99,,2013-02-20 09:11:00,
2013-02-20 02:21:00,18.0,10.0,29.76,North,0,0.0,-999.0,72,-99.99,,,-99.99,,2013-02-20 09:21:00,
2013-02-20 02:31:00,18.0,10.0,29.77,North,0,0.0,-999.0,72,-99.99,,,-99.99,,2013-02-20 09:31:00,
2013-02-20 02:41:00,18.0,10.0,29.77,North,0,0.0,-999.0,72,-99.99,,,-99.99,,2013-02-20 09:41:00,
2013-02-20 02:51:00,19.0,12.0,29.77,North,0,0.0,-999.0,73,-99.99,,,-99.99,,2013-02-20 09:51:00,
2013-02-20 03:01:00,19.0,12.0,29.77,North,0,0.0,-999.0,73,-99.99,,,-99.99,,2013-02-20 10:01:00,
2013-02-20 03:12:00,19.0,12.0,29.76,North,0,0.0,-999.0,73,-99.99,,,-99.99,,2013-02-20 10:12:00,
2013-02-20 03:21:00,19.0,12.0,29.76,North,0,0.0,-999.0,73,-99.99,,,-99.99,,2013-02-20 10:21:00,
2013-02-20 03:31:00,19.0,12.0,29.76,North,0,0.0,-999.0,73,-99.99,,,-99.99,,2013-02-20 10:31:00,
2013-02-20 03:41:00,19.0,12.0,29.76,North,0,0.0,-999.0,73,-99.99,,,-99.99,,2013-02-20 10:41:00,
2013-02-20 03:51:00,19.0,12.0,29.76,North,0,0.0,-999.0,73,-99.99,,,-99.99,,2013-02-20 10:51:00,
2013-02-20 04:01:00,19.0,12.0,29.76,North,0,0.0,-999.0,73,-99.99,,,-99.99,,2013-02-20 11:01:00,
2013-02-20 04:11:00,19.0,12.0,29.76,North,0,0.0,-999.0,73,-99.99,,,-99.99,,2013-02-20 11:11:00,
2013-02-20 04:21:00,19.0,12.0,29.76,North,0,0.0,-999.0,73,-99.99,,,-99.99,,2013-02-20 11:21:00,
2013-02-20 04:31:00,19.0,12.0,29.76,North,0,0.0,-999.0,73,-99.99,,,-99.99,,2013-02-20 11:31:00,
2013-02-20 04:41:00,19.0,12.0,29.76,North,0,0.0,-999.0,73,-99.99,,,-99.99,,2013-02-20 11:41:00,
2013-02-20 04:52:00,19.0,12.0,29.76,North,0,0.0,-999.0,73,-99.99,,,-99.99,,2013-02-20 11:52:00,
2013-02-20 05:01:00,19.0,12.0,29.76,North,0,0.0,-999.0,73,-99.99,,,-99.99,,2013-02-20 12:01:00,
2013-02-20 05:11:00,19.0,12.0,29.76,North,0,0.0,-999.0,73,-99.99,,,-99.99,,2013-02-20 12:11:00,
2013-02-20 05:21:00,19.0,12.0,29.76,North,0,0.0,-999.0,73,-99.99,,,-99.99,,2013-02-20 12:21:00,
2013-02-20 05:31:00,18.0,10.0,29.77,North,0,0.0,-999.0,72,-99.99,,,-99.99,,2013-02-20 12:31:00,
2013-02-20 05:42:00,18.0,10.0,29.77,North,0,0.0,-999.0,72,-99.99,,,-99.99,,2013-02-20 12:42:00,
2013-02-20 05:53:00,18.0,10.0,29.77,North,0,0.0,-999.0,72,-99.99,,,-99.99,,2013-02-20 12:53:00,
2013-02-20 06:01:00,18.0,10.0,29.77,North,0,0.0,-999.0,72,-99.99,,,-99.99,,2013-02-20 13:01:00,
2013-02-20 06:11:00,18.0,10.0,29.77,North,0,0.0,-999.0,72,-99.99,,,-99.99,,2013-02-20 13:11:00,
2013-02-20 06:22:00,18.0,10.0,29.77,North,0,0.0,-999.0,72,-99.99,,,-99.99,,2013-02-20 13:22:00,
2013-02-20 06:31:00,16.0,7.0,29.78,NNE,30,5.0,-999.0,67,-99.99,,,-99.99,,2013-02-20 13:31:00,
2013-02-20 06:42:00,16.0,7.0,29.78,NNE,30,5.0,-999.0,67,-99.99,,,-99.99,,2013-02-20 13:42:00,
2013-02-20 06:51:00,16.0,9.0,29.78,North,0,0.0,-999.0,72,-99.99,,,-99.99,,2013-02-20 13:51:00,
2013-02-20 07:01:00,16.0,9.0,29.78,North,0,0.0,-999.0,72,-99.99,,,-99.99,,2013-02-20 14:01:00,
2013-02-20 07:11:00,16.0,9.0,29.78,North,0,0.0,-999.0,72,-99.99,,,-99.99,,2013-02-20 14:11:00,
2013-02-20 07:21:00,16.0,9.0,29.78,North,0,0.0,-999.0,72,-99.99,,,-99.99,,2013-02-20 14:21:00,
2013-02-20 07:32:00,16.0,9.0,29.78,North,0,0.0,-999.0,72,-99.99,,,-99.99,,2013-02-20 14:32:00,
2013-02-20 07:42:00,16.0,9.0,29.78,North,0,0.0,-999.0,72,-99.99,,,-99.99,,2013-02-20 14:42:00,
2013-02-20 07:52:00,16.0,9.0,29.78,NNE,30,5.0,-999.0,72,-99.99,,,-99.99,,2013-02-20 14:52:00,
2013-02-20 08:01:00,16.0,9.0,29.78,NNE,30,5.0,-999.0,72,-99.99,,,-99.99,,2013-02-20 15:01:00,
2013-02-20 08:11:00,18.0,10.0,29.79,North,0,0.0,-999.0,72,-99.99,,,-99.99,,2013-02-20 15:11:00,
2013-02-20 08:22:00,18.0,10.0,29.79,North,0,0.0,-999.0,72,-99.99,,,-99.99,,2013-02-20 15:22:00,
2013-02-20 08:31:00,19.0,12.0,29.79,North,0,0.0,-999.0,73,-99.99,,,-99.99,,2013-02-20 15:31:00,
2013-02-20 08:41:00,19.0,12.0,29.79,North,0,0.0,-999.0,73,-99.99,,,-99.99,,2013-02-20 15:41:00,
2013-02-20 08:51:00,21.0,12.0,29.79,North,0,0.0,-999.0,67,-99.99,,,-99.99,,2013-02-20 15:51:00,
2013-02-20 09:01:00,21.0,12.0,29.79,North,0,0.0,-999.0,67,-99.99,,,-99.99,,2013-02-20 16:01:00,
2013-02-20 09:11:00,21.0,12.0,29.80,North,0,0.0,-999.0,67,-99.99,,,-99.99,,2013-02-20 16:11:00,
2013-02-20 09:21:00,21.0,12.0,29.80,North,0,0.0,-999.0,67,-99.99,,,-99.99,,2013-02-20 16:21:00,
2013-02-20 09:32:00,21.0,14.0,29.80,North,0,0.0,-999.0,73,-99.99,,,-99.99,,2013-02-20 16:32:00,
2013-02-20 09:41:00,21.0,14.0,29.80,North,0,0.0,-999.0,73,-99.99,,,-99.99,,2013-02-20 16:41:00,
2013-02-20 09:51:00,23.0,16.0,29.80,North,0,0.0,-999.0,73,-99.99,,,-99.99,,2013-02-20 16:51:00,
2013-02-20 10:01:00,23.0,16.0,29.80,North,0,0.0,-999.0,73,-99.99,,,-99.99,,2013-02-20 17:01:00,
2013-02-20 10:11:00,25.0,16.0,29.80,NNE,30,5.0,-999.0,68,-99.99,,,-99.99,,2013-02-20 17:11:00,
2013-02-20 10:21:00,25.0,16.0,29.80,NNE,30,5.0,-999.0,68,-99.99,,,-99.99,,2013-02-20 17:21:00,
2013-02-20 10:32:00,25.0,16.0,29.80,North,0,0.0,-999.0,68,-99.99,,,-99.99,,2013-02-20 17:32:00,
2013-02-20 10:41:00,25.0,16.0,29.80,North,0,0.0,-999.0,68,-99.99,,,-99.99,,2013-02-20 17:41:00,
2013-02-20 10:52:00,27.0,16.0,29.81,North,0,0.0,-999.0,63,-99.99,,,-99.99,,2013-02-20 17:52:00,
2013-02-20 11:02:00,27.0,16.0,29.81,North,0,0.0,-999.0,63,-99.99,,,-99.99,,2013-02-20 18:02:00,
2013-02-20 11:11:00,28.0,16.0,29.81,North,0,0.0,-999.0,58,-99.99,,,-99.99,,2013-02-20 18:11:00,
2013-02-20 11:21:00,28.0,16.0,29.81,North,0,0.0,-999.0,58,-99.99,,,-99.99,,2013-02-20 18:21:00,
2013-02-20 11:31:00,28.0,16.0,29.81,NE,40,7.0,-999.0,58,-99.99,,,-99.99,,2013-02-20 18:31:00,
2013-02-20 11:41:00,28.0,16.0,29.81,NE,40,7.0,-999.0,58,-99.99,,,-99.99,,2013-02-20 18:41:00,
2013-02-20 11:51:00,28.0,18.0,29.81,NNE,20,7.0,-999.0,63,-99.99,,,-99.99,,2013-02-20 18:51:00,
2013-02-20 12:01:00,28.0,18.0,29.81,NNE,20,7.0,-999.0,63,-99.99,,,-99.99,,2013-02-20 19:01:00,
2013-02-20 12:11:00,28.0,16.0,29.80,NNE,30,7.0,-999.0,58,-99.99,,,-99.99,,2013-02-20 19:11:00,
2013-02-20 12:21:00,28.0,16.0,29.80,NNE,30,7.0,-999.0,58,-99.99,,,-99.99,,2013-02-20 19:21:00,
2013-02-20 12:31:00,28.0,16.0,29.80,NE,50,5.0,-999.0,58,-99.99,,,-99.99,,2013-02-20 19:31:00,
2013-02-20 12:41:00,28.0,16.0,29.80,NE,50,5.0,-999.0,58,-99.99,,,-99.99,,2013-02-20 19:41:00,
2013-02-20 12:51:00,28.0,16.0,29.80,NE,40,8.0,-999.0,58,-99.99,,,-99.99,,2013-02-20 19:51:00,
2013-02-20 13:01:00,28.0,16.0,29.80,NE,40,8.0,-999.0,58,-99.99,,,-99.99,,2013-02-20 20:01:00,
2013-02-20 13:11:00,28.0,16.0,29.80,NE,40,8.0,-999.0,58,-99.99,,,-99.99,,2013-02-20 20:11:00,
2013-02-20 13:21:00,28.0,16.0,29.80,NE,40,8.0,-999.0,58,-99.99,,,-99.99,,2013-02-20 20:21:00,
2013-02-20 13:31:00,30.0,16.0,29.79,NE,40,5.0,-999.0,54,-99.99,,,-99.99,,2013-02-20 20:31:00,
2013-02-20 13:41:00,30.0,16.0,29.79,NE,40,5.0,-999.0,54,-99.99,,,-99.99,,2013-02-20 20:41:00,
2013-02-20 13:51:00,30.0,16.0,29.79,North,0,0.0,-999.0,54,-99.99,,,-99.99,,2013-02-20 20:51:00,
2013-02-20 14:01:00,30.0,16.0,29.79,North,0,0.0,-999.0,54,-99.99,,,-99.99,,2013-02-20 21:01:00,
2013-02-20 14:11:00,30.0,16.0,29.79,NNE,30,7.0,-999.0,54,-99.99,,,-99.99,,2013-02-20 21:11:00,
2013-02-20 14:21:00,30.0,16.0,29.79,NNE,30,7.0,-999.0,54,-99.99,,,-99.99,,2013-02-20 21:21:00,
2013-02-20 14:31:00,30.0,16.0,29.79,NNE,30,7.0,-999.0,54,-99.99,,,-99.99,,2013-02-20 21:31:00,
2013-02-20 14:41:00,30.0,16.0,29.78,North,360,9.0,-999.0,54,-99.99,,,-99.99,,2013-02-20 21:41:00,
2013-02-20 14:51:00,30.0,16.0,29.78,NNE,20,5.0,-999.0,54,-99.99,,,-99.99,,2013-02-20 21:51:00,
2013-02-20 15:01:00,30.0,16.0,29.78,NNE,20,5.0,-999.0,54,-99.99,,,-99.99,,2013-02-20 22:01:00,
2013-02-20 15:11:00,32.0,16.0,29.78,NNE,30,7.0,-999.0,50,-99.99,,,-99.99,,2013-02-20 22:11:00,
2013-02-20 15:21:00,32.0,16.0,29.78,NNE,30,7.0,-999.0,50,-99.99,,,-99.99,,2013-02-20 22:21:00,
2013-02-20 15:31:00,30.0,16.0,29.78,NNE,30,5.0,-999.0,54,-99.99,,,-99.99,,2013-02-20 22:31:00,
2013-02-20 15:41:00,30.0,16.0,29.78,NNE,30,5.0,-999.0,54,-99.99,,,-99.99,,2013-02-20 22:41:00,
2013-02-20 15:51:00,30.0,14.0,29.79,NNE,20,8.0,-999.0,50,-99.99,,,-99.99,,2013-02-20 22:51:00,
2013-02-20 16:01:00,30.0,14.0,29.79,NNE,20,8.0,-999.0,50,-99.99,,,-99.99,,2013-02-20 23:01:00,
2013-02-20 16:12:00,30.0,16.0,29.79,NNE,30,6.0,-999.0,54,-99.99,,,-99.99,,2013-02-20 23:12:00,
2013-02-20 16:22:00,30.0,16.0,29.79,NNE,30,6.0,-999.0,54,-99.99,,,-99.99,,2013-02-20 23:22:00,
2013-02-20 16:31:00,30.0,14.0,29.79,NE,50,7.0,-999.0,50,-99.99,,,-99.99,,2013-02-20 23:31:00,
2013-02-20 16:42:00,30.0,14.0,29.79,NE,50,7.0,-999.0,50,-99.99,,,-99.99,,2013-02-20 23:42:00,
2013-02-20 16:52:00,30.0,14.0,29.80,NE,50,6.0,-999.0,50,-99.99,,,-99.99,,2013-02-20 23:52:00,
2013-02-20 17:02:00,30.0,14.0,29.80,NE,50,6.0,-999.0,50,-99.99,,,-99.99,,2013-02-21 00:02:00,
2013-02-20 17:11:00,28.0,12.0,29.81,NE,40,8.0,-999.0,50,-99.99,,,-99.99,,2013-02-21 00:11:00,
2013-02-20 17:21:00,28.0,12.0,29.81,NE,40,8.0,-999.0,50,-99.99,,,-99.99,,2013-02-21 00:21:00,
2013-02-20 17:31:00,28.0,12.0,29.81,NE,40,7.0,-999.0,50,-99.99,,,-99.99,,2013-02-21 00:31:00,
2013-02-20 17:41:00,28.0,12.0,29.81,NE,40,7.0,-999.0,50,-99.99,,,-99.99,,2013-02-21 00:41:00,
2013-02-20 17:52:00,28.0,12.0,29.82,NNE,30,7.0,-999.0,50,-99.99,,,-99.99,,2013-02-21 00:52:00,
2013-02-20 18:01:00,28.0,12.0,29.82,NNE,30,7.0,-999.0,50,-99.99,,,-99.99,,2013-02-21 01:01:00,
2013-02-20 18:11:00,28.0,12.0,29.82,NNE,30,7.0,-999.0,50,-99.99,,,-99.99,,2013-02-21 01:11:00,
2013-02-20 18:21:00,28.0,12.0,29.82,NNE,30,7.0,-999.0,50,-99.99,,,-99.99,,2013-02-21 01:21:00,
2013-02-20 18:32:00,27.0,12.0,29.83,NNE,30,6.0,-999.0,54,-99.99,,,-99.99,,2013-02-21 01:32:00,
2013-02-20 18:42:00,27.0,12.0,29.83,NNE,30,6.0,-999.0,54,-99.99,,,-99.99,,2013-02-21 01:42:00,
2013-02-20 18:52:00,27.0,12.0,29.83,North,0,0.0,-999.0,54,-99.99,,,-99.99,,2013-02-21 01:52:00,
2013-02-20 19:01:00,27.0,12.0,29.83,North,0,0.0,-999.0,54,-99.99,,,-99.99,,2013-02-21 02:01:00,
2013-02-20 19:11:00,25.0,12.0,29.84,North,0,0.0,-999.0,58,-99.99,,,-99.99,,2013-02-21 02:11:00,
2013-02-20 19:21:00,25.0,12.0,29.84,North,0,0.0,-999.0,58,-99.99,,,-99.99,,2013-02-21 02:21:00,
2013-02-20 19:32:00,25.0,12.0,29.84,North,0,0.0,-999.0,58,-99.99,,,-99.99,,2013-02-21 02:32:00,
2013-02-20 19:42:00,25.0,12.0,29.84,North,0,0.0,-999.0,58,-99.99,,,-99.99,,2013-02-21 02:42:00,
2013-02-20 19:51:00,25.0,12.0,29.84,North,0,0.0,-999.0,58,-99.99,,,-99.99,,2013-02-21 02:51:00,
2013-02-20 20:01:00,25.0,10.0,29.84,North,0,0.0,-999.0,53,-99.99,,,-99.99,,2013-02-21 03:01:00,
2013-02-20 20:11:00,25.0,10.0,29.85,North,0,0.0,-999.0,53,-99.99,,,-99.99,,2013-02-21 03:11:00,
2013-02-20 20:21:00,25.0,10.0,29.85,North,0,0.0,-999.0,53,-99.99,,,-99.99,,2013-02-21 03:21:00,
2013-02-20 20:31:00,25.0,12.0,29.85,North,0,0.0,-999.0,58,-99.99,,,-99.99,,2013-02-21 03:31:00,
2013-02-20 20:41:00,25.0,12.0,29.85,North,0,0.0,-999.0,58,-99.99,,,-99.99,,2013-02-21 03:41:00,
2013-02-20 20:51:00,25.0,12.0,29.84,NNE,20,6.0,-999.0,58,-99.99,,,-99.99,,2013-02-21 03:51:00,
2013-02-20 21:01:00,25.0,12.0,29.84,NNE,20,6.0,-999.0,58,-99.99,,,-99.99,,2013-02-21 04:01:00,
2013-02-20 21:11:00,25.0,12.0,29.84,NNE,20,6.0,-999.0,58,-99.99,,,-99.99,,2013-02-21 04:11:00,
2013-02-20 21:21:00,25.0,12.0,29.84,NNE,20,6.0,-999.0,58,-99.99,,,-99.99,,2013-02-21 04:21:00,
2013-02-20 21:31:00,23.0,12.0,29.86,North,0,0.0,-999.0,62,-99.99,,,-99.99,,2013-02-21 04:31:00,
2013-02-20 21:42:00,23.0,12.0,29.86,North,0,0.0,-999.0,62,-99.99,,,-99.99,,2013-02-21 04:42:00,
2013-02-20 21:52:00,23.0,12.0,29.86,North,0,0.0,-999.0,62,-99.99,,,-99.99,,2013-02-21 04:52:00,
2013-02-20 22:02:00,23.0,12.0,29.86,North,0,0.0,-999.0,62,-99.99,,,-99.99,,2013-02-21 05:02:00,
2013-02-20 22:12:00,21.0,12.0,29.87,North,0,0.0,-999.0,67,-99.99,,,-99.99,,2013-02-21 05:12:00,
2013-02-20 22:22:00,21.0,12.0,29.87,North,0,0.0,-999.0,67,-99.99,,,-99.99,,2013-02-21 05:22:00,
2013-02-20 22:32:00,21.0,12.0,29.87,North,0,0.0,-999.0,67,-99.99,,,-99.99,,2013-02-21 05:32:00,
2013-02-20 22:42:00,21.0,12.0,29.87,North,0,0.0,-999.0,67,-99.99,,,-99.99,,2013-02-21 05:42:00,
2013-02-20 22:51:00,21.0,14.0,29.87,North,0,0.0,-999.0,73,-99.99,,,-99.99,,2013-02-21 05:51:00,
2013-02-20 23:01:00,21.0,14.0,29.87,North,0,0.0,-999.0,73,-99.99,,,-99.99,,2013-02-21 06:01:00,
2013-02-20 23:10:00,21.0,14.0,29.87,North,0,0.0,-999.0,73,-99.99,,,-99.99,,2013-02-21 06:10:00,
2013-02-20 23:21:00,21.0,14.0,29.87,North,0,0.0,-999.0,73,-99.99,,,-99.99,,2013-02-21 06:21:00,
2013-02-20 23:31:00,21.0,14.0,29.87,North,0,0.0,-999.0,73,-99.99,,,-99.99,,2013-02-21 06:31:00,
2013-02-20 23:41:00,21.0,14.0,29.87,North,0,0.0,-999.0,73,-99.99,,,-99.99,,2013-02-21 06:41:00,
2013-02-20 23:51:00,21.0,14.0,29.87,North,0,0.0,-999.0,73,-99.99,,,-99.99,,2013-02-21 06:51:00,